Year,Month,Day,Hour,Minute,Value (Times are PST for temperature in C)
2013,05,01,00,00,1.80
2013,05,01,00,01,1.80
2013,05,01,00,02,1.80
2013,05,01,00,03,1.80
2013,05,01,00,04,1.80
2013,05,01,00,05,1.80
2013,05,01,00,06,1.80
2013,05,01,00,07,1.80
2013,05,01,00,08,1.80
2013,05,01,00,09,1.80
2013,05,01,00,10,1.80
2013,05,01,00,11,1.80
2013,05,01,00,12,1.80
2013,05,01,00,13,1.80
2013,05,01,00,14,1.80
2013,05,01,00,15,1.80
2013,05,01,00,16,1.80
2013,05,01,00,17,1.80
2013,05,01,00,18,1.80
2013,05,01,00,19,1.80
2013,05,01,00,20,1.80
2013,05,01,00,21,1.80
2013,05,01,00,22,1.80
2013,05,01,00,23,1.80
2013,05,01,00,24,1.70
2013,05,01,00,25,1.70
2013,05,01,00,26,1.70
2013,05,01,00,27,1.70
2013,05,01,00,28,1.70
2013,05,01,00,29,1.70
2013,05,01,00,30,1.70
2013,05,01,00,31,1.70
2013,05,01,00,32,1.70
2013,05,01,00,33,1.70
2013,05,01,00,34,1.70
2013,05,01,00,35,1.60
2013,05,01,00,36,1.60
2013,05,01,00,37,1.60
2013,05,01,00,38,1.60
2013,05,01,00,39,1.60
2013,05,01,00,40,1.60
2013,05,01,00,41,1.50
2013,05,01,00,42,1.50
2013,05,01,00,43,1.50
2013,05,01,00,44,1.50
2013,05,01,00,45,1.50
2013,05,01,00,46,1.50
2013,05,01,00,47,1.50
2013,05,01,00,48,1.50
2013,05,01,00,49,1.50
2013,05,01,00,50,1.40
2013,05,01,00,51,1.50
2013,05,01,00,52,1.40
2013,05,01,00,53,1.40
2013,05,01,00,54,1.40
2013,05,01,00,55,1.40
2013,05,01,00,56,1.40
2013,05,01,00,57,1.40
2013,05,01,00,58,1.40
2013,05,01,00,59,1.40
2013,05,01,01,00,1.40
2013,05,01,01,01,1.40
2013,05,01,01,02,1.40
2013,05,01,01,03,1.40
2013,05,01,01,04,1.40
2013,05,01,01,05,1.40
2013,05,01,01,06,1.40
2013,05,01,01,07,1.40
2013,05,01,01,08,1.40
2013,05,01,01,09,1.40
2013,05,01,01,10,1.40
2013,05,01,01,11,1.40
2013,05,01,01,12,1.40
2013,05,01,01,13,1.40
2013,05,01,01,14,1.40
2013,05,01,01,15,1.40
2013,05,01,01,16,1.40
2013,05,01,01,17,1.50
2013,05,01,01,18,1.50
2013,05,01,01,19,1.50
2013,05,01,01,20,1.50
2013,05,01,01,21,1.50
2013,05,01,01,22,1.50
2013,05,01,01,23,1.60
2013,05,01,01,24,1.60
2013,05,01,01,25,1.60
2013,05,01,01,26,1.60
2013,05,01,01,27,1.60
2013,05,01,01,28,1.60
2013,05,01,01,29,1.60
2013,05,01,01,30,1.60
2013,05,01,01,31,1.60
2013,05,01,01,32,1.60
2013,05,01,01,33,1.60
2013,05,01,01,34,1.60
2013,05,01,01,35,1.60
2013,05,01,01,36,1.60
2013,05,01,01,37,1.60
2013,05,01,01,38,1.60
2013,05,01,01,39,1.60
2013,05,01,01,40,1.60
2013,05,01,01,41,1.60
2013,05,01,01,42,1.60
2013,05,01,01,43,1.60
2013,05,01,01,44,1.60
2013,05,01,01,45,1.60
2013,05,01,01,46,1.60
2013,05,01,01,47,1.50
2013,05,01,01,48,1.50
2013,05,01,01,49,1.50
2013,05,01,01,50,1.50
2013,05,01,01,51,1.50
2013,05,01,01,52,1.50
2013,05,01,01,53,1.50
2013,05,01,01,54,1.50
2013,05,01,01,55,1.40
2013,05,01,01,56,1.40
2013,05,01,01,57,1.40
2013,05,01,01,58,1.40
2013,05,01,01,59,1.30
2013,05,01,02,00,1.30
2013,05,01,02,01,1.30
2013,05,01,02,02,1.30
2013,05,01,02,03,1.30
2013,05,01,02,04,1.30
2013,05,01,02,05,1.30
2013,05,01,02,06,1.30
2013,05,01,02,07,1.30
2013,05,01,02,08,1.30
2013,05,01,02,09,1.30
2013,05,01,02,10,1.30
2013,05,01,02,11,1.30
2013,05,01,02,12,1.30
2013,05,01,02,13,1.30
2013,05,01,02,14,1.30
2013,05,01,02,15,1.30
2013,05,01,02,16,1.30
2013,05,01,02,17,1.30
2013,05,01,02,18,1.30
2013,05,01,02,19,1.30
2013,05,01,02,20,1.30
2013,05,01,02,21,1.30
2013,05,01,02,22,1.30
2013,05,01,02,23,1.30
2013,05,01,02,24,1.40
2013,05,01,02,25,1.30
2013,05,01,02,26,1.30
2013,05,01,02,27,1.30
2013,05,01,02,28,1.30
2013,05,01,02,29,1.30
2013,05,01,02,30,1.30
2013,05,01,02,31,1.30
2013,05,01,02,32,1.30
2013,05,01,02,33,1.30
2013,05,01,02,34,1.30
2013,05,01,02,35,1.30
2013,05,01,02,36,1.30
2013,05,01,02,37,1.30
2013,05,01,02,38,1.30
2013,05,01,02,39,1.30
2013,05,01,02,40,1.30
2013,05,01,02,41,1.30
2013,05,01,02,42,1.30
2013,05,01,02,43,1.30
2013,05,01,02,44,1.30
2013,05,01,02,45,1.30
2013,05,01,02,46,1.30
2013,05,01,02,47,1.30
2013,05,01,02,48,1.30
2013,05,01,02,49,1.30
2013,05,01,02,50,1.30
2013,05,01,02,51,1.30
2013,05,01,02,52,1.30
2013,05,01,02,53,1.30
2013,05,01,02,54,1.30
2013,05,01,02,55,1.30
2013,05,01,02,56,1.30
2013,05,01,02,57,1.30
2013,05,01,02,58,1.30
2013,05,01,02,59,1.30
2013,05,01,03,00,1.30
2013,05,01,03,01,1.30
2013,05,01,03,02,1.30
2013,05,01,03,03,1.30
2013,05,01,03,04,1.30
2013,05,01,03,05,1.30
2013,05,01,03,06,1.30
2013,05,01,03,07,1.30
2013,05,01,03,08,1.30
2013,05,01,03,09,1.30
2013,05,01,03,10,1.30
2013,05,01,03,11,1.30
2013,05,01,03,12,1.30
2013,05,01,03,13,1.30
2013,05,01,03,14,1.30
2013,05,01,03,15,1.30
2013,05,01,03,16,1.30
2013,05,01,03,17,1.30
2013,05,01,03,18,1.30
2013,05,01,03,19,1.30
2013,05,01,03,20,1.30
2013,05,01,03,21,1.30
2013,05,01,03,22,1.30
2013,05,01,03,23,1.20
2013,05,01,03,24,1.20
2013,05,01,03,25,1.20
2013,05,01,03,26,1.20
2013,05,01,03,27,1.20
2013,05,01,03,28,1.20
2013,05,01,03,29,1.20
2013,05,01,03,30,1.20
2013,05,01,03,31,1.20
2013,05,01,03,32,1.20
2013,05,01,03,33,1.20
2013,05,01,03,34,1.20
2013,05,01,03,35,1.20
2013,05,01,03,36,1.20
2013,05,01,03,37,1.20
2013,05,01,03,38,1.20
2013,05,01,03,39,1.20
2013,05,01,03,40,1.20
2013,05,01,03,41,1.20
2013,05,01,03,42,1.20
2013,05,01,03,43,1.20
2013,05,01,03,44,1.20
2013,05,01,03,45,1.10
2013,05,01,03,46,1.10
2013,05,01,03,47,1.10
2013,05,01,03,48,1.10
2013,05,01,03,49,1.10
2013,05,01,03,50,1.10
2013,05,01,03,51,1.10
2013,05,01,03,52,1.10
2013,05,01,03,53,1.10
2013,05,01,03,54,1.10
2013,05,01,03,55,1.10
2013,05,01,03,56,1.10
2013,05,01,03,57,1.10
2013,05,01,03,58,1.10
2013,05,01,03,59,1.10
2013,05,01,04,00,1.10
2013,05,01,04,01,1.10
2013,05,01,04,02,1.10
2013,05,01,04,03,1.10
2013,05,01,04,04,1.10
2013,05,01,04,05,1.10
2013,05,01,04,06,1.10
2013,05,01,04,07,1.10
2013,05,01,04,08,1.10
2013,05,01,04,09,1.10
2013,05,01,04,10,1.10
2013,05,01,04,11,1.10
2013,05,01,04,12,1.10
2013,05,01,04,13,1.00
2013,05,01,04,14,1.00
2013,05,01,04,15,1.00
2013,05,01,04,16,1.00
2013,05,01,04,17,1.00
2013,05,01,04,18,1.00
2013,05,01,04,19,1.00
2013,05,01,04,20,1.00
2013,05,01,04,21,1.00
2013,05,01,04,22,1.00
2013,05,01,04,23,1.00
2013,05,01,04,24,1.00
2013,05,01,04,25,1.00
2013,05,01,04,26,1.00
2013,05,01,04,27,1.00
2013,05,01,04,28,1.00
2013,05,01,04,29,1.00
2013,05,01,04,30,0.90
2013,05,01,04,31,1.00
2013,05,01,04,32,1.00
2013,05,01,04,33,1.00
2013,05,01,04,34,1.00
2013,05,01,04,35,1.00
2013,05,01,04,36,1.00
2013,05,01,04,37,0.90
2013,05,01,04,38,1.00
2013,05,01,04,39,0.90
2013,05,01,04,40,0.90
2013,05,01,04,41,1.00
2013,05,01,04,42,0.90
2013,05,01,04,43,0.90
2013,05,01,04,44,0.90
2013,05,01,04,45,0.90
2013,05,01,04,46,0.90
2013,05,01,04,47,0.90
2013,05,01,04,48,0.90
2013,05,01,04,49,0.90
2013,05,01,04,50,0.90
2013,05,01,04,51,1.00
2013,05,01,04,52,1.00
2013,05,01,04,53,1.00
2013,05,01,04,54,1.00
2013,05,01,04,55,1.00
2013,05,01,04,56,1.00
2013,05,01,04,57,1.00
2013,05,01,04,58,0.90
2013,05,01,04,59,0.90
2013,05,01,05,00,1.00
2013,05,01,05,01,0.90
2013,05,01,05,02,1.00
2013,05,01,05,03,1.00
2013,05,01,05,04,1.00
2013,05,01,05,05,0.90
2013,05,01,05,06,0.90
2013,05,01,05,07,0.90
2013,05,01,05,08,0.90
2013,05,01,05,09,0.90
2013,05,01,05,10,0.90
2013,05,01,05,11,0.90
2013,05,01,05,12,0.90
2013,05,01,05,13,0.90
2013,05,01,05,14,0.90
2013,05,01,05,15,0.90
2013,05,01,05,16,0.90
2013,05,01,05,17,0.90
2013,05,01,05,18,0.90
2013,05,01,05,19,0.90
2013,05,01,05,20,0.90
2013,05,01,05,21,0.90
2013,05,01,05,22,0.90
2013,05,01,05,23,0.90
2013,05,01,05,24,0.90
2013,05,01,05,25,0.90
2013,05,01,05,26,0.90
2013,05,01,05,27,0.90
2013,05,01,05,28,0.90
2013,05,01,05,29,0.90
2013,05,01,05,30,0.90
2013,05,01,05,31,0.90
2013,05,01,05,32,0.90
2013,05,01,05,33,0.90
2013,05,01,05,34,0.90
2013,05,01,05,35,0.90
2013,05,01,05,36,0.90
2013,05,01,05,37,0.90
2013,05,01,05,38,0.90
2013,05,01,05,39,0.90
2013,05,01,05,40,0.90
2013,05,01,05,41,0.90
2013,05,01,05,42,0.90
2013,05,01,05,43,0.90
2013,05,01,05,44,0.90
2013,05,01,05,45,0.90
2013,05,01,05,46,0.90
2013,05,01,05,47,0.90
2013,05,01,05,48,0.90
2013,05,01,05,49,0.90
2013,05,01,05,50,0.90
2013,05,01,05,51,0.90
2013,05,01,05,52,0.90
2013,05,01,05,53,0.80
2013,05,01,05,54,0.80
2013,05,01,05,55,0.80
2013,05,01,05,56,0.80
2013,05,01,05,57,0.80
2013,05,01,05,58,0.80
2013,05,01,05,59,0.80
2013,05,01,06,00,0.80
2013,05,01,06,01,0.80
2013,05,01,06,02,0.80
2013,05,01,06,03,0.80
2013,05,01,06,04,0.80
2013,05,01,06,05,0.80
2013,05,01,06,06,0.80
2013,05,01,06,07,0.80
2013,05,01,06,08,0.80
2013,05,01,06,09,0.70
2013,05,01,06,10,0.70
2013,05,01,06,11,0.70
2013,05,01,06,12,0.70
2013,05,01,06,13,0.70
2013,05,01,06,14,0.70
2013,05,01,06,15,0.80
2013,05,01,06,16,0.80
2013,05,01,06,17,0.80
2013,05,01,06,18,0.80
2013,05,01,06,19,0.80
2013,05,01,06,20,0.80
2013,05,01,06,21,0.80
2013,05,01,06,22,0.80
2013,05,01,06,23,0.80
2013,05,01,06,24,0.80
2013,05,01,06,25,0.80
2013,05,01,06,26,0.80
2013,05,01,06,27,0.80
2013,05,01,06,28,0.80
2013,05,01,06,29,0.80
2013,05,01,06,30,0.80
2013,05,01,06,31,0.80
2013,05,01,06,32,0.80
2013,05,01,06,33,0.80
2013,05,01,06,34,0.80
2013,05,01,06,35,0.80
2013,05,01,06,36,0.80
2013,05,01,06,37,0.90
2013,05,01,06,38,0.80
2013,05,01,06,39,0.80
2013,05,01,06,40,0.80
2013,05,01,06,41,0.90
2013,05,01,06,42,0.90
2013,05,01,06,43,0.90
2013,05,01,06,44,0.90
2013,05,01,06,45,0.90
2013,05,01,06,46,0.90
2013,05,01,06,47,0.90
2013,05,01,06,48,0.90
2013,05,01,06,49,0.90
2013,05,01,06,50,0.90
2013,05,01,06,51,0.90
2013,05,01,06,52,0.90
2013,05,01,06,53,0.90
2013,05,01,06,54,0.90
2013,05,01,06,55,1.00
2013,05,01,06,56,1.00
2013,05,01,06,57,1.00
2013,05,01,06,58,1.00
2013,05,01,06,59,1.00
2013,05,01,07,00,1.00
2013,05,01,07,01,1.00
2013,05,01,07,02,1.10
2013,05,01,07,03,1.10
2013,05,01,07,04,1.10
2013,05,01,07,05,1.10
2013,05,01,07,06,1.10
2013,05,01,07,07,1.10
2013,05,01,07,08,1.10
2013,05,01,07,09,1.10
2013,05,01,07,10,1.10
2013,05,01,07,11,1.20
2013,05,01,07,12,1.20
2013,05,01,07,13,1.20
2013,05,01,07,14,1.20
2013,05,01,07,15,1.30
2013,05,01,07,16,1.30
2013,05,01,07,17,1.30
2013,05,01,07,18,1.30
2013,05,01,07,19,1.30
2013,05,01,07,20,1.30
2013,05,01,07,21,1.30
2013,05,01,07,22,1.40
2013,05,01,07,23,1.50
2013,05,01,07,24,1.50
2013,05,01,07,25,1.60
2013,05,01,07,26,1.60
2013,05,01,07,27,1.60
2013,05,01,07,28,1.60
2013,05,01,07,29,1.70
2013,05,01,07,30,1.70
2013,05,01,07,31,1.70
2013,05,01,07,32,1.80
2013,05,01,07,33,1.80
2013,05,01,07,34,1.80
2013,05,01,07,35,1.80
2013,05,01,07,36,1.90
2013,05,01,07,37,1.90
2013,05,01,07,38,1.90
2013,05,01,07,39,1.90
2013,05,01,07,40,2.00
2013,05,01,07,41,2.00
2013,05,01,07,42,2.00
2013,05,01,07,43,2.10
2013,05,01,07,44,2.10
2013,05,01,07,45,2.10
2013,05,01,07,46,2.20
2013,05,01,07,47,2.20
2013,05,01,07,48,2.20
2013,05,01,07,49,2.30
2013,05,01,07,50,2.30
2013,05,01,07,51,2.30
2013,05,01,07,52,2.40
2013,05,01,07,53,2.40
2013,05,01,07,54,2.40
2013,05,01,07,55,2.50
2013,05,01,07,56,2.50
2013,05,01,07,57,2.60
2013,05,01,07,58,2.60
2013,05,01,07,59,2.70
2013,05,01,08,00,2.70
2013,05,01,08,01,2.80
2013,05,01,08,02,2.80
2013,05,01,08,03,2.80
2013,05,01,08,04,2.90
2013,05,01,08,05,2.90
2013,05,01,08,06,3.00
2013,05,01,08,07,3.10
2013,05,01,08,08,3.20
2013,05,01,08,09,3.30
2013,05,01,08,10,3.40
2013,05,01,08,11,3.50
2013,05,01,08,12,3.60
2013,05,01,08,13,3.70
2013,05,01,08,14,3.80
2013,05,01,08,15,3.90
2013,05,01,08,16,4.10
2013,05,01,08,17,4.20
2013,05,01,08,18,4.30
2013,05,01,08,19,4.50
2013,05,01,08,20,4.60
2013,05,01,08,21,4.70
2013,05,01,08,22,4.80
2013,05,01,08,23,4.90
2013,05,01,08,24,5.00
2013,05,01,08,25,5.10
2013,05,01,08,26,5.30
2013,05,01,08,27,5.40
2013,05,01,08,28,5.60
2013,05,01,08,29,5.80
2013,05,01,08,30,6.00
2013,05,01,08,31,6.10
2013,05,01,08,32,6.30
2013,05,01,08,33,6.30
2013,05,01,08,34,6.40
2013,05,01,08,35,6.50
2013,05,01,08,36,6.60
2013,05,01,08,37,6.70
2013,05,01,08,38,6.80
2013,05,01,08,39,6.90
2013,05,01,08,40,6.90
2013,05,01,08,41,7.00
2013,05,01,08,42,7.00
2013,05,01,08,43,7.10
2013,05,01,08,44,7.10
2013,05,01,08,45,7.10
2013,05,01,08,46,7.10
2013,05,01,08,47,7.20
2013,05,01,08,48,7.20
2013,05,01,08,49,7.30
2013,05,01,08,50,7.30
2013,05,01,08,51,7.40
2013,05,01,08,52,7.50
2013,05,01,08,53,7.60
2013,05,01,08,54,7.60
2013,05,01,08,55,7.70
2013,05,01,08,56,7.80
2013,05,01,08,57,7.90
2013,05,01,08,58,8.00
2013,05,01,08,59,8.10
2013,05,01,09,00,8.10
2013,05,01,09,01,8.30
2013,05,01,09,02,8.40
2013,05,01,09,03,8.50
2013,05,01,09,04,8.70
2013,05,01,09,05,8.80
2013,05,01,09,06,8.80
2013,05,01,09,07,9.00
2013,05,01,09,08,9.00
2013,05,01,09,09,9.10
2013,05,01,09,10,9.20
2013,05,01,09,11,9.20
2013,05,01,09,12,9.30
2013,05,01,09,13,9.30
2013,05,01,09,14,9.30
2013,05,01,09,15,9.30
2013,05,01,09,16,9.30
2013,05,01,09,17,9.30
2013,05,01,09,18,9.30
2013,05,01,09,19,9.40
2013,05,01,09,20,9.40
2013,05,01,09,21,9.40
2013,05,01,09,22,9.40
2013,05,01,09,23,9.40
2013,05,01,09,24,9.50
2013,05,01,09,25,9.50
2013,05,01,09,26,9.50
2013,05,01,09,27,9.50
2013,05,01,09,28,9.60
2013,05,01,09,29,9.60
2013,05,01,09,30,9.60
2013,05,01,09,31,9.60
2013,05,01,09,32,9.60
2013,05,01,09,33,9.60
2013,05,01,09,34,9.60
2013,05,01,09,35,9.60
2013,05,01,09,36,9.60
2013,05,01,09,37,9.60
2013,05,01,09,38,9.60
2013,05,01,09,39,9.60
2013,05,01,09,40,9.60
2013,05,01,09,41,9.60
2013,05,01,09,42,9.70
2013,05,01,09,43,9.70
2013,05,01,09,44,9.80
2013,05,01,09,45,9.80
2013,05,01,09,46,9.90
2013,05,01,09,47,9.90
2013,05,01,09,48,10.00
2013,05,01,09,49,10.10
2013,05,01,09,50,10.10
2013,05,01,09,51,10.20
2013,05,01,09,52,10.30
2013,05,01,09,53,10.30
2013,05,01,09,54,10.20
2013,05,01,09,55,10.20
2013,05,01,09,56,10.20
2013,05,01,09,57,10.20
2013,05,01,09,58,10.20
2013,05,01,09,59,10.20
2013,05,01,10,00,10.20
2013,05,01,10,01,10.20
2013,05,01,10,02,10.20
2013,05,01,10,03,10.20
2013,05,01,10,04,10.20
2013,05,01,10,05,10.10
2013,05,01,10,06,10.10
2013,05,01,10,07,10.10
2013,05,01,10,08,10.10
2013,05,01,10,09,10.10
2013,05,01,10,10,10.00
2013,05,01,10,11,10.00
2013,05,01,10,12,10.00
2013,05,01,10,13,10.00
2013,05,01,10,14,10.00
2013,05,01,10,15,10.10
2013,05,01,10,16,10.00
2013,05,01,10,17,10.00
2013,05,01,10,18,10.00
2013,05,01,10,19,10.10
2013,05,01,10,20,10.10
2013,05,01,10,21,10.10
2013,05,01,10,22,10.00
2013,05,01,10,23,10.00
2013,05,01,10,24,10.00
2013,05,01,10,25,10.00
2013,05,01,10,26,10.00
2013,05,01,10,27,10.00
2013,05,01,10,28,9.90
2013,05,01,10,29,9.90
2013,05,01,10,30,9.90
2013,05,01,10,31,9.90
2013,05,01,10,32,9.90
2013,05,01,10,33,9.90
2013,05,01,10,34,9.90
2013,05,01,10,35,9.90
2013,05,01,10,36,10.00
2013,05,01,10,37,10.00
2013,05,01,10,38,10.00
2013,05,01,10,39,9.90
2013,05,01,10,40,9.90
2013,05,01,10,41,9.90
2013,05,01,10,42,10.00
2013,05,01,10,43,10.00
2013,05,01,10,44,9.90
2013,05,01,10,45,9.90
2013,05,01,10,46,9.90
2013,05,01,10,47,9.90
2013,05,01,10,48,9.90
2013,05,01,10,49,9.90
2013,05,01,10,50,10.00
2013,05,01,10,51,10.00
2013,05,01,10,52,10.10
2013,05,01,10,53,10.10
2013,05,01,10,54,10.10
2013,05,01,10,55,10.20
2013,05,01,10,56,10.20
2013,05,01,10,57,10.20
2013,05,01,10,58,10.20
2013,05,01,10,59,10.20
2013,05,01,11,00,10.20
2013,05,01,11,01,10.20
2013,05,01,11,02,10.20
2013,05,01,11,03,10.30
2013,05,01,11,04,10.30
2013,05,01,11,05,10.30
2013,05,01,11,06,10.40
2013,05,01,11,07,10.40
2013,05,01,11,08,10.40
2013,05,01,11,09,10.40
2013,05,01,11,10,10.50
2013,05,01,11,11,10.40
2013,05,01,11,12,10.50
2013,05,01,11,13,10.50
2013,05,01,11,14,10.50
2013,05,01,11,15,10.60
2013,05,01,11,16,10.60
2013,05,01,11,17,10.60
2013,05,01,11,18,10.70
2013,05,01,11,19,10.70
2013,05,01,11,20,10.70
2013,05,01,11,21,10.70
2013,05,01,11,22,10.70
2013,05,01,11,23,10.80
2013,05,01,11,24,10.80
2013,05,01,11,25,10.80
2013,05,01,11,26,10.70
2013,05,01,11,27,10.70
2013,05,01,11,28,10.70
2013,05,01,11,29,10.70
2013,05,01,11,30,10.80
2013,05,01,11,31,10.80
2013,05,01,11,32,10.80
2013,05,01,11,33,10.90
2013,05,01,11,34,10.90
2013,05,01,11,35,11.00
2013,05,01,11,36,11.00
2013,05,01,11,37,11.10
2013,05,01,11,38,11.10
2013,05,01,11,39,11.10
2013,05,01,11,40,11.20
2013,05,01,11,41,11.20
2013,05,01,11,42,11.20
2013,05,01,11,43,11.30
2013,05,01,11,44,11.30
2013,05,01,11,45,11.30
2013,05,01,11,46,11.30
2013,05,01,11,47,11.40
2013,05,01,11,48,11.40
2013,05,01,11,49,11.50
2013,05,01,11,50,11.60
2013,05,01,11,51,11.70
2013,05,01,11,52,11.70
2013,05,01,11,53,11.70
2013,05,01,11,54,11.70
2013,05,01,11,55,11.70
2013,05,01,11,56,11.80
2013,05,01,11,57,11.80
2013,05,01,11,58,11.90
2013,05,01,11,59,11.90
2013,05,01,12,00,11.90
2013,05,01,12,01,11.80
2013,05,01,12,02,11.80
2013,05,01,12,03,11.80
2013,05,01,12,04,11.80
2013,05,01,12,05,11.80
2013,05,01,12,06,11.90
2013,05,01,12,07,12.00
2013,05,01,12,08,12.00
2013,05,01,12,09,12.10
2013,05,01,12,10,12.20
2013,05,01,12,11,12.30
2013,05,01,12,12,12.40
2013,05,01,12,13,12.50
2013,05,01,12,14,12.60
2013,05,01,12,15,12.70
2013,05,01,12,16,12.80
2013,05,01,12,17,12.80
2013,05,01,12,18,12.80
2013,05,01,12,19,12.90
2013,05,01,12,20,13.00
2013,05,01,12,21,13.10
2013,05,01,12,22,13.10
2013,05,01,12,23,13.00
2013,05,01,12,24,13.00
2013,05,01,12,25,13.00
2013,05,01,12,26,12.90
2013,05,01,12,27,12.90
2013,05,01,12,28,12.90
2013,05,01,12,29,13.00
2013,05,01,12,30,13.10
2013,05,01,12,31,13.10
2013,05,01,12,32,13.10
2013,05,01,12,33,13.10
2013,05,01,12,34,13.10
2013,05,01,12,35,13.10
2013,05,01,12,36,13.10
2013,05,01,12,37,13.10
2013,05,01,12,38,13.20
2013,05,01,12,39,13.30
2013,05,01,12,40,13.30
2013,05,01,12,41,13.40
2013,05,01,12,42,13.50
2013,05,01,12,43,13.60
2013,05,01,12,44,13.80
2013,05,01,12,45,13.80
2013,05,01,12,46,13.70
2013,05,01,12,47,13.70
2013,05,01,12,48,13.80
2013,05,01,12,49,13.80
2013,05,01,12,50,13.70
2013,05,01,12,51,13.80
2013,05,01,12,52,13.80
2013,05,01,12,53,13.80
2013,05,01,12,54,13.70
2013,05,01,12,55,13.70
2013,05,01,12,56,13.70
2013,05,01,12,57,13.60
2013,05,01,12,58,13.60
2013,05,01,12,59,13.50
2013,05,01,13,00,13.50
2013,05,01,13,01,13.50
2013,05,01,13,02,13.50
2013,05,01,13,03,13.60
2013,05,01,13,04,13.60
2013,05,01,13,05,13.60
2013,05,01,13,06,13.70
2013,05,01,13,07,13.80
2013,05,01,13,08,13.90
2013,05,01,13,09,14.00
2013,05,01,13,10,14.10
2013,05,01,13,11,14.20
2013,05,01,13,12,14.20
2013,05,01,13,13,14.20
2013,05,01,13,14,14.20
2013,05,01,13,15,14.10
2013,05,01,13,16,14.10
2013,05,01,13,17,14.10
2013,05,01,13,18,14.10
2013,05,01,13,19,14.00
2013,05,01,13,20,14.00
2013,05,01,13,21,14.00
2013,05,01,13,22,14.00
2013,05,01,13,23,14.00
2013,05,01,13,24,14.00
2013,05,01,13,25,13.90
2013,05,01,13,26,13.90
2013,05,01,13,27,13.90
2013,05,01,13,28,13.90
2013,05,01,13,29,13.90
2013,05,01,13,30,13.90
2013,05,01,13,31,13.90
2013,05,01,13,32,13.90
2013,05,01,13,33,14.00
2013,05,01,13,34,14.10
2013,05,01,13,35,14.20
2013,05,01,13,36,14.20
2013,05,01,13,37,14.10
2013,05,01,13,38,14.10
2013,05,01,13,39,14.10
2013,05,01,13,40,14.10
2013,05,01,13,41,14.20
2013,05,01,13,42,14.20
2013,05,01,13,43,14.20
2013,05,01,13,44,14.10
2013,05,01,13,45,14.00
2013,05,01,13,46,13.90
2013,05,01,13,47,13.90
2013,05,01,13,48,13.90
2013,05,01,13,49,13.90
2013,05,01,13,50,14.00
2013,05,01,13,51,14.00
2013,05,01,13,52,14.10
2013,05,01,13,53,14.10
2013,05,01,13,54,14.10
2013,05,01,13,55,13.90
2013,05,01,13,56,13.80
2013,05,01,13,57,13.70
2013,05,01,13,58,13.70
2013,05,01,13,59,13.70
2013,05,01,14,00,13.70
2013,05,01,14,01,13.70
2013,05,01,14,02,13.80
2013,05,01,14,03,13.90
2013,05,01,14,04,13.90
2013,05,01,14,05,14.00
2013,05,01,14,06,14.10
2013,05,01,14,07,14.10
2013,05,01,14,08,14.10
2013,05,01,14,09,14.20
2013,05,01,14,10,14.30
2013,05,01,14,11,14.40
2013,05,01,14,12,14.50
2013,05,01,14,13,14.60
2013,05,01,14,14,14.60
2013,05,01,14,15,14.70
2013,05,01,14,16,14.70
2013,05,01,14,17,14.70
2013,05,01,14,18,14.60
2013,05,01,14,19,14.60
2013,05,01,14,20,14.50
2013,05,01,14,21,14.50
2013,05,01,14,22,14.60
2013,05,01,14,23,14.60
2013,05,01,14,24,14.70
2013,05,01,14,25,14.70
2013,05,01,14,26,14.70
2013,05,01,14,27,14.60
2013,05,01,14,28,14.60
2013,05,01,14,29,14.50
2013,05,01,14,30,14.50
2013,05,01,14,31,14.40
2013,05,01,14,32,14.40
2013,05,01,14,33,14.30
2013,05,01,14,34,14.30
2013,05,01,14,35,14.30
2013,05,01,14,36,14.20
2013,05,01,14,37,14.20
2013,05,01,14,38,14.20
2013,05,01,14,39,14.30
2013,05,01,14,40,14.30
2013,05,01,14,41,14.30
2013,05,01,14,42,14.40
2013,05,01,14,43,14.40
2013,05,01,14,44,14.50
2013,05,01,14,45,14.50
2013,05,01,14,46,14.40
2013,05,01,14,47,14.40
2013,05,01,14,48,14.30
2013,05,01,14,49,14.30
2013,05,01,14,50,14.30
2013,05,01,14,51,14.30
2013,05,01,14,52,14.30
2013,05,01,14,53,14.30
2013,05,01,14,54,14.30
2013,05,01,14,55,14.30
2013,05,01,14,56,14.30
2013,05,01,14,57,14.30
2013,05,01,14,58,14.30
2013,05,01,14,59,14.30
2013,05,01,15,00,14.30
2013,05,01,15,01,14.20
2013,05,01,15,02,14.20
2013,05,01,15,03,14.10
2013,05,01,15,04,14.00
2013,05,01,15,05,14.00
2013,05,01,15,06,13.90
2013,05,01,15,07,14.00
2013,05,01,15,08,14.00
2013,05,01,15,09,14.00
2013,05,01,15,10,14.10
2013,05,01,15,11,14.10
2013,05,01,15,12,14.20
2013,05,01,15,13,14.20
2013,05,01,15,14,14.20
2013,05,01,15,15,14.20
2013,05,01,15,16,14.20
2013,05,01,15,17,14.20
2013,05,01,15,18,14.20
2013,05,01,15,19,14.10
2013,05,01,15,20,14.10
2013,05,01,15,21,14.10
2013,05,01,15,22,14.20
2013,05,01,15,23,14.20
2013,05,01,15,24,14.20
2013,05,01,15,25,14.20
2013,05,01,15,26,14.30
2013,05,01,15,27,14.30
2013,05,01,15,28,14.30
2013,05,01,15,29,14.30
2013,05,01,15,30,14.30
2013,05,01,15,31,14.30
2013,05,01,15,32,14.30
2013,05,01,15,33,14.30
2013,05,01,15,34,14.30
2013,05,01,15,35,14.20
2013,05,01,15,36,14.20
2013,05,01,15,37,14.20
2013,05,01,15,38,14.20
2013,05,01,15,39,14.10
2013,05,01,15,40,14.10
2013,05,01,15,41,14.10
2013,05,01,15,42,14.10
2013,05,01,15,43,14.10
2013,05,01,15,44,14.10
2013,05,01,15,45,14.10
2013,05,01,15,46,14.00
2013,05,01,15,47,14.00
2013,05,01,15,48,13.90
2013,05,01,15,49,13.90
2013,05,01,15,50,13.90
2013,05,01,15,51,13.90
2013,05,01,15,52,13.90
2013,05,01,15,53,13.80
2013,05,01,15,54,13.80
2013,05,01,15,55,13.80
2013,05,01,15,56,13.80
2013,05,01,15,57,13.80
2013,05,01,15,58,13.80
2013,05,01,15,59,13.90
2013,05,01,16,00,13.90
2013,05,01,16,01,13.90
2013,05,01,16,02,13.90
2013,05,01,16,03,13.90
2013,05,01,16,04,13.90
2013,05,01,16,05,13.90
2013,05,01,16,06,13.90
2013,05,01,16,07,13.90
2013,05,01,16,08,13.90
2013,05,01,16,09,13.90
2013,05,01,16,10,13.90
2013,05,01,16,11,13.90
2013,05,01,16,12,13.90
2013,05,01,16,13,13.90
2013,05,01,16,14,13.90
2013,05,01,16,15,13.90
2013,05,01,16,16,13.90
2013,05,01,16,17,13.90
2013,05,01,16,18,13.90
2013,05,01,16,19,13.90
2013,05,01,16,20,13.90
2013,05,01,16,21,13.90
2013,05,01,16,22,13.90
2013,05,01,16,23,13.90
2013,05,01,16,24,13.90
2013,05,01,16,25,13.90
2013,05,01,16,26,13.90
2013,05,01,16,27,13.90
2013,05,01,16,28,13.90
2013,05,01,16,29,13.90
2013,05,01,16,30,13.90
2013,05,01,16,31,13.90
2013,05,01,16,32,13.90
2013,05,01,16,33,13.90
2013,05,01,16,34,13.90
2013,05,01,16,35,13.80
2013,05,01,16,36,13.80
2013,05,01,16,37,13.80
2013,05,01,16,38,13.80
2013,05,01,16,39,13.80
2013,05,01,16,40,13.80
2013,05,01,16,41,13.80
2013,05,01,16,42,13.80
2013,05,01,16,43,13.80
2013,05,01,16,44,13.80
2013,05,01,16,45,13.80
2013,05,01,16,46,13.80
2013,05,01,16,47,13.80
2013,05,01,16,48,13.80
2013,05,01,16,49,13.80
2013,05,01,16,50,13.80
2013,05,01,16,51,13.80
2013,05,01,16,52,13.80
2013,05,01,16,53,13.80
2013,05,01,16,54,13.80
2013,05,01,16,55,13.80
2013,05,01,16,56,13.80
2013,05,01,16,57,13.80
2013,05,01,16,58,13.90
2013,05,01,16,59,13.90
2013,05,01,17,00,13.90
2013,05,01,17,01,13.90
2013,05,01,17,02,13.90
2013,05,01,17,03,13.90
2013,05,01,17,04,13.90
2013,05,01,17,05,13.90
2013,05,01,17,06,13.90
2013,05,01,17,07,13.80
2013,05,01,17,08,13.80
2013,05,01,17,09,13.80
2013,05,01,17,10,13.80
2013,05,01,17,11,13.80
2013,05,01,17,12,13.70
2013,05,01,17,13,13.70
2013,05,01,17,14,13.70
2013,05,01,17,15,13.70
2013,05,01,17,16,13.70
2013,05,01,17,17,13.70
2013,05,01,17,18,13.70
2013,05,01,17,19,13.70
2013,05,01,17,20,13.70
2013,05,01,17,21,13.70
2013,05,01,17,22,13.70
2013,05,01,17,23,13.70
2013,05,01,17,24,13.60
2013,05,01,17,25,13.60
2013,05,01,17,26,13.60
2013,05,01,17,27,13.60
2013,05,01,17,28,13.60
2013,05,01,17,29,13.60
2013,05,01,17,30,13.60
2013,05,01,17,31,13.60
2013,05,01,17,32,13.60
2013,05,01,17,33,13.60
2013,05,01,17,34,13.60
2013,05,01,17,35,13.60
2013,05,01,17,36,13.60
2013,05,01,17,37,13.50
2013,05,01,17,38,13.50
2013,05,01,17,39,13.50
2013,05,01,17,40,13.50
2013,05,01,17,41,13.50
2013,05,01,17,42,13.50
2013,05,01,17,43,13.50
2013,05,01,17,44,13.40
2013,05,01,17,45,13.40